OHDAC EFPO-EFKK

Flight info

Callsign OHDAC
Flight time N/A
Altitude 8000
Route AHDG/30 OSDIL DCT DIVEG T255 ATPEL
Aircraft DA42/L-SBDGRY/S

Departure

Time N/A
Airport Pori Airport (EFPO)

Arrival

Time 2026-04-27 15:13
Airport Kokkola-Pietarsaari Airport (EFKK)
Time Latitude Longitude Altitude Speed Heading
2026-04-27 15:03 63.45443 22.89072 4495 ft 144 kts 35°
2026-04-27 15:03 63.46187 22.90542 4291 ft 142 kts 35°
2026-04-27 15:04 63.46924 22.91998 4090 ft 142 kts 35°
2026-04-27 15:04 63.47662 22.93462 3882 ft 141 kts 35°
2026-04-27 15:04 63.48396 22.94915 3670 ft 141 kts 35°
2026-04-27 15:04 63.49118 22.96349 3462 ft 140 kts 35°
2026-04-27 15:05 63.49853 22.97801 3249 ft 140 kts 35°
2026-04-27 15:05 63.50579 22.99243 3037 ft 140 kts 35°
2026-04-27 15:05 63.51307 23.00692 2830 ft 140 kts 35°
2026-04-27 15:05 63.52032 23.02130 2624 ft 140 kts 36°
2026-04-27 15:06 63.52756 23.03573 2444 ft 138 kts 36°
2026-04-27 15:06 63.53455 23.04967 2397 ft 131 kts 34°
2026-04-27 15:06 63.54114 23.06288 2392 ft 125 kts 34°
2026-04-27 15:06 63.54828 23.07240 2387 ft 117 kts
2026-04-27 15:07 63.55621 23.07515 2397 ft 114 kts
2026-04-27 15:07 63.56404 23.07808 2393 ft 114 kts
2026-04-27 15:07 63.57184 23.08116 2386 ft 113 kts
2026-04-27 15:07 63.57952 23.08428 2386 ft 113 kts 10°
2026-04-27 15:08 63.58732 23.08751 2380 ft 112 kts
2026-04-27 15:08 63.59497 23.09069 2372 ft 113 kts 11°
2026-04-27 15:08 63.60248 23.09381 2249 ft 97 kts 10°
2026-04-27 15:08 63.60828 23.09629 2143 ft 78 kts 11°
2026-04-27 15:09 63.61357 23.09848 2040 ft 77 kts
2026-04-27 15:09 63.61884 23.10065 1937 ft 77 kts 10°
2026-04-27 15:09 63.62419 23.10291 1834 ft 77 kts 10°
2026-04-27 15:09 63.62949 23.10524 1728 ft 79 kts 10°
2026-04-27 15:10 63.63494 23.10751 1621 ft 80 kts
2026-04-27 15:10 63.64035 23.10977 1518 ft 77 kts
2026-04-27 15:10 63.64554 23.11193 1405 ft 75 kts 11°
2026-04-27 15:10 63.65070 23.11424 1293 ft 75 kts
2026-04-27 15:11 63.65571 23.11617 1193 ft 71 kts 11°
2026-04-27 15:11 63.66064 23.11837 1085 ft 75 kts
2026-04-27 15:11 63.66598 23.12055 982 ft 80 kts
2026-04-27 15:11 63.67148 23.12264 867 ft 81 kts 11°
2026-04-27 15:12 63.67709 23.12525 754 ft 83 kts
2026-04-27 15:12 63.68277 23.12760 680 ft 81 kts
2026-04-27 15:12 63.68838 23.13022 598 ft 82 kts
2026-04-27 15:12 63.69409 23.13264 479 ft 84 kts
2026-04-27 15:13 63.69960 23.13476 323 ft 85 kts
2026-04-27 15:13 63.70536 23.13684 189 ft 81 kts
2026-04-27 15:13 63.71044 23.13925 98 ft 68 kts
2026-04-27 15:13 63.71462 23.14094 83 ft 46 kts
2026-04-27 15:14 63.71691 23.14188 84 ft 25 kts 18°
2026-04-27 15:14 63.71859 23.14256 84 ft 31 kts 345°
2026-04-27 15:14 63.71930 23.13830 83 ft 27 kts 282°
2026-04-27 15:14 63.71953 23.13485 83 ft 21 kts 259°
2026-04-27 15:15 63.71951 23.13451 83 ft 0 kts 262°